Location: Ferchesar
(52.6477°N, 12.4298°E)
Time: 04:45:15
(UTC+01:00)

Vanguard 1 Rocket - Pass Details

Date: 09 December 2021
Orbit: 651 x 4224 km, 34.3° (Epoch: 15 January)

Event Time Altitude Azimuth Distance (km) Brightness Sun altitude
Exits shadow 03:48:54 34° 191° (S) 3,353 10.0 -38.0°
Maximum altitude 03:51:01 36° 175° (S) 3,503 10.1 -37.7°
Drops below altitude 10° 04:07:49 10° 119° (ESE) 6,726 12.3 -35.2°
Sets 04:14:34 0° 113° (ESE) 8,142 13.0 -34.2°
